Location: Oshawa
(43.9000°N, 78.8670°W)
Time: 13:00:13
(UTC-04:00)

Cosmos 839 Rocket - Visible Passes

Search period start: 30 August 2016 00:00
Search period end: 09 September 2016 00:00
Orbit: 960 x 2092 km, 65.9° (Epoch: 30 August)

Date Brightness Start Highest point End Pass type
(mag) Time Alt. Az. Time Alt. Az. Time Alt. Az.
30 Aug 6.5 00:31:21 10° NNW 00:38:27 24° NNE 00:44:25 10° ENE visible
30 Aug 4.5 02:32:10 10° NNW 02:40:40 70° NE 02:41:36 64° E visible
30 Aug 5.6 04:33:58 10° NW 04:38:06 21° W 04:38:06 21° W visible
30 Aug 7.0 21:43:23 10° WNW 21:50:55 21° NNW 21:57:27 10° NNE visible
30 Aug 6.7 23:48:55 10° NNW 23:55:32 20° NNE 00:01:12 10° ENE visible
31 Aug 5.1 01:50:07 10° NNW 01:58:28 50° NE 01:59:45 46° ENE visible
31 Aug 5.3 03:51:13 10° NW 03:56:17 31° WNW 03:56:17 31° WNW visible
31 Aug 7.0 20:59:29 10° WNW 21:07:55 24° NNW 21:15:11 10° NNE visible
31 Aug 6.8 23:06:12 10° NW 23:12:31 19° N 23:17:59 10° NE visible
01 Sep 5.6 01:08:03 10° NNW 01:16:04 37° NE 01:18:06 32° ENE visible
01 Sep 5.0 03:08:50 10° NW 03:14:38 43° WNW 03:14:38 43° WNW visible
01 Sep 7.0 20:15:39 10° W 20:25:03 29° NNW 20:33:04 10° NNE visible
01 Sep 6.9 22:23:04 10° NW 22:29:24 18° N 22:34:57 10° NE visible
02 Sep 6.0 00:25:57 10° NNW 00:33:28 29° NNE 00:36:35 22° ENE visible
02 Sep 4.8 02:26:37 10° NW 02:33:07 56° NW 02:33:07 56° NW visible
02 Sep 6.9 21:39:33 10° NW 21:46:17 19° N 21:52:10 10° NNE visible
02 Sep 6.4 23:43:44 10° NNW 23:50:42 24° NNE 23:55:10 15° ENE visible
03 Sep 4.8 01:44:31 10° NNW 01:51:43 60° N 01:51:43 60° N visible
03 Sep 6.2 03:46:17 10° NW 03:48:16 16° WNW 03:48:16 16° WNW visible
03 Sep 6.9 20:55:44 10° WNW 21:03:12 21° NNW 21:09:40 10° NNE visible
03 Sep 6.6 23:01:18 10° NNW 23:07:48 20° NNE 23:13:22 10° ENE visible
04 Sep 5.1 01:02:29 10° NNW 01:10:22 49° NE 01:10:22 49° NE visible
04 Sep 5.9 03:03:33 10° NW 03:06:56 24° WNW 03:06:56 24° WNW visible
04 Sep 6.9 20:11:50 10° WNW 20:20:13 24° NNW 20:27:25 10° NNE visible
04 Sep 6.7 22:18:34 10° NW 22:24:46 18° N 22:30:09 10° NE visible
05 Sep 5.5 00:20:26 10° NNW 00:28:19 37° NE 00:29:06 36° NE visible
05 Sep 5.5 02:21:10 10° NW 02:25:40 33° NW 02:25:40 33° NW visible
05 Sep 6.8 21:35:26 10° NW 21:41:40 18° N 21:47:07 10° NE visible
05 Sep 5.9 23:38:20 10° NNW 23:45:44 28° NNE 23:47:53 25° ENE visible
06 Sep 5.3 01:38:59 10° NW 01:44:27 44° NW 01:44:27 44° NW visible
06 Sep 6.8 20:51:54 10° NW 20:58:33 19° N 21:04:21 10° NNE visible
06 Sep 6.2 22:56:07 10° NNW 23:02:58 23° NNE 23:06:42 17° ENE visible
07 Sep 5.1 00:56:53 10° NNW 01:03:16 51° N 01:03:16 51° N visible
07 Sep 6.4 02:58:35 10° NW 02:59:51 14° WNW 02:59:51 14° WNW visible
07 Sep 6.8 20:08:05 10° WNW 20:15:29 21° NNW 20:21:53 10° NNE visible
07 Sep 6.5 22:13:41 10° NNW 22:20:03 20° NNE 22:25:32 10° ENE visible
08 Sep 5.2 00:14:50 10° NNW 00:22:09 47° NNE 00:22:09 47° NNE visible
08 Sep 6.1 02:15:52 10° NW 02:18:43 21° WNW 02:18:43 21° WNW visible
08 Sep 6.6 21:30:57 10° NNW 21:37:02 18° N 21:42:19 10° NE visible
08 Sep 5.4 23:32:48 10° NNW 23:40:35 36° NE 23:41:03 36° NE visible
